World > North America > United States > Texas > Franklin   City of Franklin, TX

Franklin, TX Hourly Weather Updates

Feedback E-mail the Weather

Quick Clicks

Franklin, TX Weather Maps

°F °C°F °C
Franklin Weather Map
UTC Time: 6/14/2024, 15:45
Your Time:

Franklin, TX Regional Weather

Expires:202406141600;;006621
ASUS44 KFWD 141515
RWRTX 
NORTH TEXAS HOURLY WEATHER ROUNDUP
NATIONAL WEATHER SERVICE FORT WORTH TX
1000 AM CDT FRI JUN 14 2024

NOTE: "FAIR" INDICATES FEW OR NO CLOUDS BELOW 12,000 FEET WITH NO
SIGNIFICANT WEATHER AND/OR OBSTRUCTIONS TO VISIBILITY.


TXZ143>147-156>162-174-175-141600-
CENTRAL TEXAS
  
CITY           SKY/WX    TMP DP  RH WIND       PRES   REMARKS
WACO           FAIR      85  75  72 SW5       29.99S HX  93           
WACO-TSTC      SUNNY     84  73  70 S3        30.00S HX  91           
WACO-MCGREGOR  FAIR      87  74  64 VRB5      30.00S HX  95           
HILLSBORO      FAIR      86  74  68 S3        30.01R HX  94           
CORSICANA      FAIR      84  68  58 S7        30.01S                  
MEXIA          FAIR      84  74  73 MISG      30.00S HX  91           
HEARNE         FAIR      84  76  75 CALM      29.99S HX  93           
CAMERON        FAIR      84  77  79 SW5       29.99S HX  94           
TEMPLE         FAIR      86  75  69 S5        30.00S HX  95           
KILLEEN        FAIR      85  75  71 SE8       30.00R HX  93           
KILLEEN-SKYLRK FAIR      85  74  69 S8        30.01R HX  92           
FORT CAVAZOS   FAIR      85  73  66 S6        29.99S HX  92           
GATESVILLE     FAIR      84  77  79 SW5       30.01S HX  94           
HAMILTON       FAIR      84  76  75 CALM      30.03S HX  93           
$$


SKY/WX - Weather  TMP - Temperature  DP - Dew Point  RH - Humidity
WIND - Wind Direction/Speed PRES - Barometric Pressure VSB - Visibility
WCI - Wind Chill Index E13G22 Wind - East Wind 13 mph/Gusts of 22 mph

Trending Headlines

Trending Entertainment Headlines

Franklin Radar Loop

Use the map search tool if you want to place a location marker on the radar map...

Franklin Quick Facts

National Two Day Weather Forecast


E-mail the Franklin Weather Forecast

Voice your opinion or tell us about page issues...